Beatrice, NE

7:11 PM CST on December 07, 2016 (GMT -0600)
Beatrice Municipal

Weather History for KBIE - December, 1998

Change the Weather History Date:

Wednesday, December 30, 1998

  Actual Average Record
Temperature  
Mean Temperature 22 °F -  
Max Temperature 33 °F 33 °F 66 °F (2004)
Min Temperature 10 °F 12 °F -8 °F (1968)
Degree Days  
Heating Degree Days 44    
Moisture  
Dew Point 8 °F    
Average Humidity 67    
Maximum Humidity 85    
Minimum Humidity 50    
Precipitation  
Precipitation 0.00 in - - ()
Sea Level Pressure  
Sea Level Pressure 30.00 in    
Wind  
Wind Speed 10 mph (SSE)    
Max Wind Speed 29 mph    
Max Gust Speed 39 mph    
Visibility 9 miles    
Events      
Averages and records for this station are not official NWS values.
T = Trace of Precipitation, MM = Missing Value Source: NWS Daily Summary

Daily Weather History Graph

Daily Weather History Graph

Search for Another Location

Airport or City:

Trip Planner

Search our weather history database for the weather conditions in past years. The results will help you decide how hot, cold, wet, or windy it might be!

Date:

Astronomy

Dec. 30, 1998 Rise Set
Actual Time 7:49 AM CST 5:09 PM CST
Civil Twilight 7:18 AM CST 5:40 PM CST
Nautical Twilight 6:44 AM CST 6:14 PM CST
Astronomical Twilight 6:11 AM CST 6:47 PM CST
Moon 3:22 PM CST (12/30) 4:50 AM CST (12/30)
Length of Visible Light 10h 21m
Length of Day
9h 20m
Waxing Gibbous, 92% of the Moon is Illuminated
Dec 30
Waxing Gibbous
Jan 1
Full
Jan 9
Last Quarter
Jan 17
New
Jan 24
First Quarter

Hourly Weather History & Observations

Time (CST) Temp. Windchill Dew Point Humidity Pressure Visibility Wind Dir Wind Speed Gust Speed Precip Events Conditions
12:12 AM 10.4 °F - -2.2 °F 57% 30.28 in 10.0 mi Calm Calm - N/A   Clear
12:29 AM 12.2 °F - -2.2 °F 53% 30.28 in 10.0 mi Calm Calm - N/A   Clear
12:51 AM 10.4 °F 2.2 °F -0.4 °F 62% 30.24 in 10.0 mi East 4.6 mph - N/A   Clear
1:09 AM 10.4 °F 0.8 °F -0.4 °F 62% 30.23 in 10.0 mi East 5.8 mph - N/A   Clear
1:51 AM 12.2 °F -1.0 °F -0.4 °F 57% 30.20 in 10.0 mi East 10.4 mph - N/A   Clear
2:09 AM 12.2 °F 0.7 °F -2.2 °F 53% 30.19 in 10.0 mi East 8.1 mph - N/A   Clear
2:31 AM 12.2 °F -0.2 °F -0.4 °F 57% 30.18 in 10.0 mi ESE 9.2 mph - N/A   Clear
2:49 AM 12.2 °F -0.2 °F -0.4 °F 57% 30.18 in 10.0 mi ESE 9.2 mph - N/A   Clear
3:13 AM 12.2 °F 0.7 °F -0.4 °F 57% 30.15 in 10.0 mi ESE 8.1 mph - N/A   Mostly Cloudy
3:29 AM 12.2 °F -1.8 °F -0.4 °F 57% 30.14 in 10.0 mi SE 11.5 mph - N/A   Overcast
3:51 AM 12.2 °F -2.5 °F -0.4 °F 57% 30.13 in 7.0 mi SE 12.7 mph - N/A   Overcast
4:14 AM 12.2 °F -2.5 °F 3.2 °F 67% 30.12 in 1.8 mi SE 12.7 mph - N/A   Overcast
4:29 AM 10.4 °F -3.3 °F 6.8 °F 85% 30.11 in 1.0 mi SSE 10.4 mph - N/A   Overcast
4:51 AM 10.4 °F -0.4 °F 6.8 °F 85% 30.10 in 1.2 mi SE 6.9 mph - N/A   Overcast
5:12 AM 10.4 °F -1.5 °F 6.8 °F 85% 30.08 in 1.5 mi SE 8.1 mph - N/A   Overcast
5:37 AM 10.4 °F -3.3 °F 6.8 °F 85% 30.07 in 1.5 mi SE 10.4 mph - N/A   Overcast
6:09 AM 10.4 °F -3.3 °F 6.8 °F 85% 30.04 in 1.5 mi SE 10.4 mph - N/A   Overcast
6:31 AM 10.4 °F -4.1 °F 6.8 °F 85% 30.02 in 3.0 mi SE 11.5 mph - N/A   Overcast
6:49 AM 12.2 °F -1.8 °F 6.8 °F 79% 30.00 in 10.0 mi SE 11.5 mph 19.6 mph N/A   Overcast
7:31 AM 12.2 °F -4.3 °F 6.8 °F 79% 29.98 in 10.0 mi SE 16.1 mph - N/A   Overcast
7:49 AM 12.2 °F 0.7 °F 8.6 °F 85% 29.98 in 10.0 mi SSE 8.1 mph - N/A   Overcast
8:09 AM 12.2 °F -3.1 °F 6.8 °F 79% 29.97 in 10.0 mi SSE 13.8 mph - N/A   Overcast
8:31 AM 12.2 °F -3.7 °F 6.8 °F 79% 29.96 in 10.0 mi SSE 15.0 mph - N/A   Overcast
8:51 AM 14.0 °F -0.2 °F 6.8 °F 73% 29.96 in 10.0 mi SSE 12.7 mph - N/A   Overcast
9:09 AM 14.0 °F -2.0 °F 5.0 °F 67% 29.95 in 10.0 mi SSE 16.1 mph 20.7 mph N/A   Overcast
9:49 AM 15.8 °F 0.9 °F 6.8 °F 68% 29.93 in 10.0 mi SSE 15.0 mph 23.0 mph N/A   Overcast
10:09 AM 17.6 °F 3.2 °F 6.8 °F 63% 29.92 in 10.0 mi SSE 15.0 mph - N/A   Overcast
10:29 AM 17.6 °F 0.9 °F 6.8 °F 63% 29.92 in 10.0 mi SSE 20.7 mph - N/A   Overcast
11:31 AM 19.4 °F 6.0 °F 8.6 °F 63% 29.89 in 10.0 mi South 13.8 mph - N/A   Scattered Clouds
12:09 PM 23.0 °F 9.6 °F 8.6 °F 54% 29.86 in 10.0 mi South 16.1 mph 25.3 mph N/A   Clear
12:31 PM 24.8 °F 11.5 °F 10.4 °F 54% 29.84 in 10.0 mi South 17.3 mph 21.9 mph N/A   Scattered Clouds
12:52 PM 24.8 °F 10.7 °F 8.6 °F 50% 29.82 in 10.0 mi South 19.6 mph - N/A   Scattered Clouds
1:09 PM 26.6 °F 14.7 °F 10.4 °F 51% 29.80 in 10.0 mi South 15.0 mph 25.3 mph N/A   Clear
1:31 PM 26.6 °F 14.3 °F 12.2 °F 55% 29.79 in 10.0 mi South 16.1 mph 20.7 mph N/A   Clear
1:52 PM 28.4 °F 17.0 °F 12.2 °F 51% 29.78 in 10.0 mi SSW 15.0 mph - N/A   Clear
2:29 PM 28.4 °F 19.1 °F 12.2 °F 51% 29.80 in 10.0 mi SSW 10.4 mph 18.4 mph N/A   Clear
2:51 PM 28.4 °F 17.0 °F 14.0 °F 55% 29.78 in 10.0 mi South 15.0 mph - N/A   Clear
3:09 PM 28.4 °F 18.0 °F 14.0 °F 55% 29.78 in 10.0 mi South 12.7 mph - N/A   Clear
3:53 PM 30.2 °F 21.9 °F 17.6 °F 60% 29.81 in 10.0 mi SSW 9.2 mph - N/A   Overcast
4:11 PM 30.2 °F 22.6 °F 17.6 °F 60% 29.81 in 10.0 mi SSW 8.1 mph - N/A   Overcast
4:29 PM 30.2 °F 23.4 °F 17.6 °F 60% 29.82 in 10.0 mi SSW 6.9 mph - N/A   Overcast
5:09 PM 30.2 °F 26.7 °F 19.4 °F 64% 29.84 in 10.0 mi SW 3.5 mph - N/A   Mostly Cloudy
5:31 PM 30.2 °F - 19.4 °F 64% 29.85 in 10.0 mi Calm Calm - N/A   Overcast
5:49 PM 33.8 °F 20.3 °F 21.2 °F 60% 29.89 in 10.0 mi NW 28.8 mph 36.8 mph N/A   Overcast
6:31 PM 24.8 °F 8.1 °F 17.6 °F 74% 29.97 in 10.0 mi NW 28.8 mph 39.1 mph N/A   Overcast
6:49 PM 23.0 °F 6.3 °F 15.8 °F 74% 29.99 in 10.0 mi NW 26.5 mph 36.8 mph N/A   Overcast
7:29 PM 21.2 °F 3.9 °F 15.8 °F 80% 30.02 in 10.0 mi NW 26.5 mph 35.7 mph N/A   Overcast
7:51 PM 21.2 °F 3.9 °F 14.0 °F 74% 30.06 in 10.0 mi NNW 26.5 mph 34.5 mph N/A   Overcast
8:16 PM 17.6 °F 0.1 °F 12.2 °F 79% 30.10 in 10.0 mi NNW 23.0 mph 31.1 mph N/A   Overcast
8:51 PM 15.8 °F -2.3 °F 10.4 °F 79% 30.13 in 7.0 mi NNW 23.0 mph 31.1 mph N/A   Overcast
9:11 PM 15.8 °F -2.7 °F 8.6 °F 73% 30.14 in 10.0 mi NNW 24.2 mph 32.2 mph N/A   Overcast
9:29 PM 14.0 °F -3.4 °F 8.6 °F 79% 30.16 in 10.0 mi NNW 19.6 mph 26.5 mph N/A   Overcast
9:53 PM 12.2 °F -6.3 °F 6.8 °F 79% 30.17 in 10.0 mi NNW 20.7 mph 25.3 mph N/A   Overcast
10:13 PM 10.4 °F -7.7 °F 6.8 °F 85% 30.19 in 10.0 mi NNW 18.4 mph - N/A   Mostly Cloudy
10:36 PM 10.4 °F -7.7 °F 5.0 °F 79% 30.20 in 10.0 mi North 18.4 mph - N/A   Overcast
10:49 PM 10.4 °F -7.2 °F 5.0 °F 79% 30.21 in 10.0 mi North 17.3 mph 21.9 mph N/A   Overcast
11:12 PM 8.6 °F -7.7 °F 3.2 °F 79% 30.22 in 10.0 mi NNW 13.8 mph - N/A   Overcast
11:29 PM 8.6 °F -6.3 °F 3.2 °F 79% 30.23 in 10.0 mi NNW 11.5 mph - N/A   Scattered Clouds
11:50 PM 6.8 °F -8.6 °F 1.4 °F 79% 30.25 in 10.0 mi NW 11.5 mph - N/A   Scattered Clouds